Location: Drouwen
(52.9559°N, 6.7974°E)
Time: 10:57:14
(UTC+00:00)

Helios 1B rocket - Pass Details

Date: 15 May 2026
Orbit: 459 x 466 km, 98.2° (Epoch: 5 June)

Event Time Altitude Azimuth Distance (km) Brightness Sun altitude
Exits shadow 21:22:33 16° 111° (ESE) 1,300 3.8 -13.0°
Maximum altitude 21:24:32 27° 64° (ENE) 951 3.5 -13.1°
Drops below altitude 10° 21:27:33 10° 6° (N) 1,647 5.6 -13.3°
Sets 21:29:48 0° 354° (N) 2,529 7.1 -13.5°
